Location: ?astrovice
(49.6513°N, 14.9287°E)
Time: 05:04:48
(UTC+00:00)

STARLINK-1143 - Pass Details

Date: 09 April 2020
Orbit: 549 x 551 km, 53.0° (Epoch: 01 June)

Event Time Altitude Azimuth Distance (km) Brightness Sun altitude
Rises 20:09:00 0° 293° (WNW) 2,781 8.4 -21.2°
Reaches altitude 10° 20:11:21 10° 286° (WNW) 1,881 7.2 -21.5°
Maximum altitude 20:15:23 40° 216° (SW) 846 4.4 -21.9°
Enters shadow 20:15:31 40° 211° (SSW) 848 4.4 -22.0°
